Location: Launay
(47.2429°N, 1.5727°E)
Time: 23:59:04
(UTC+00:00)

Cosmos 1833 Rocket - Pass Details

Date: 19 May 2025
Orbit: 831 x 839 km, 71.0° (Epoch: 18 June)

Event Time Altitude Azimuth Distance (km) Brightness Sun altitude
Rises 22:05:13 0° 233° (SW) 3,381 5.7 -18.7°
Reaches altitude 10° 22:07:52 10° 243° (WSW) 2,451 5.1 -18.9°
Maximum altitude 22:13:00 35° 308° (NW) 1,329 4.3 -19.3°
Drops below altitude 10° 22:18:09 10° 14° (NNE) 2,464 5.9 -19.7°
Sets 22:20:49 0° 23° (NNE) 3,401 6.5 -19.8°
